Flag for Canada Weather past 2 weeks in Trois-Rivieres, Quebec, Canada

Now
51 °F

Cool.


Feels Like: 49 °F
Forecast: 50 / 62 °F
Wind: 6 mph from Northeast

Location: Trois Rivieres

Current Time: Oct 1, 2014 at 7:57:55 AM

Latest Report: Oct 1, 2014 at 7:00 AM


Visibility: N/A

Pressure: 30.16 "Hg

Humidity: 89%

Dew point: 47 °F

Location of Trois-RivieresLocation

Historic Weather in Trois-Rivieres — Graph

°F

Trois-Rivieres temperature yesterday

Maximum temperature yesterday: 53 °F (at 4:00 PM)
Minimum temperature yesterday: 48 °F (at 2:00 AM)
Average temperature yesterday: 51 °F

Past Weeks' High & Low Weather Summary

 TemperatureHumidityPressure
High78 °F (Sep 28, 3:00 PM)100% (Sep 17, 11:00 PM)30.61 "Hg (Sep 17, 11:00 PM)
Low35 °F (Sep 19, 7:00 AM)33% (Sep 19, 2:00 PM)29.40 "Hg (Sep 22, 4:00 AM)
Average55 °F82%30.07 "Hg
* Reported Sep 16 6:00 AM — Oct 1 6:00 AM, Trois-Rivieres, Weather by CustomWeather, © 2014

Note: Actual official high and low records may vary slightly from our data, if they occured in-between our weather recording intervals... More about our weather records

Advertising

Trois-Rivieres weather history for previous 24 hours

 ConditionsComfort  
Time TempWeatherWind HumidityBarometerVisibility
6:00 AM
Oct 1
51 °FCool.8 mph86%30.14 "HgN/A
5:00 AM50 °FCool.8 mph86%30.14 "HgN/A
4:00 AM50 °FCool.7 mph89%30.12 "HgN/A
3:00 AM50 °FCool.7 mph92%30.12 "HgN/A
2:00 AM50 °FCool.6 mph91%30.12 "HgN/A
1:00 AM51 °FCool.6 mph93%30.11 "HgN/A
12:00 AM51 °FCool.8 mph90%30.11 "HgN/A
11:00 PM
Sep 30
51 °FCool.8 mph91%30.11 "HgN/A
10:00 PM52 °FCool.6 mph92%30.11 "HgN/A
9:00 PM53 °FCool.6 mph93%30.10 "HgN/A
8:00 PM52 °FCool.8 mph94%30.08 "HgN/A
7:00 PM52 °FCool.7 mph91%30.07 "HgN/A
6:00 PM53 °FCool.8 mph87%30.06 "HgN/A
5:00 PM53 °FCool.8 mph88%30.04 "HgN/A
4:00 PM53 °FCool.6 mph87%30.04 "HgN/A
3:00 PM53 °FCool.8 mph90%30.04 "HgN/A
2:00 PM52 °FCool.8 mph91%30.05 "HgN/A
1:00 PM51 °FCool.8 mph91%30.04 "HgN/A
11:00 AM50 °FCool.9 mph92%30.05 "HgN/A
10:00 AM50 °FCool.7 mph85%30.05 "HgN/A
8:00 AM50 °FCool.7 mph92%30.03 "HgN/A
7:00 AM50 °FCool.7 mph93%30.02 "HgN/A
Weather by CustomWeather, © 2014

See weather overviewHow to use our weather pages